Dewpoint
58 55 55 57 57 56 51 45 42 40 36 34 31 32 31 33 30 38 32 43 43 45 47 48 47 49 49 49 50 51 51 52 53 53 53 54 54 55 56 58 60 61 62
56 58 52 44 42 41 40 38 34 33 29 28 23 25 28 26 30 34 24 33 39 38 41 44 43 43 43 43 45 46 46 47 47 49 50 51 51 52 53 54 55 56 58
56 48 42 40 38 37 32 28 29 30 25 24 20 22 26 21 34 22 24 30 29 32 37 38 37 36 37 38 40 41 42 43 46 47 47 47 47 47 47 49 50 52 55
45 42 39 34 30 28 27 26 26 28 25 22 19 20 22 20 34 17 25 31 27 23 27 30 28 30 32 34 36 37 41 41 43 43 43 44 44 44 43 44 46 50 52
40 37 32 27 25 22 21 24 24 30 24 20 17 20 18 21 31 17 25 29 22 21 24 22 24 25 26 30 33 35 35 40 40 41 41 40 40 40 41 42 44 45 46
33 29 25 23 22 19 19 19 19 26 27 22 20 15 23 27 28 16 25 27 19 20 24 19 20 23 24 26 30 31 31 37 36 35 37 38 38 39 41 42 42 42 43
26 24 22 21 21 19 18 17 20 18 24 25 17 17 21 22 27 20 18 26 18 19 22 16 18 22 23 24 27 25 31 33 32 35 35 36 37 39 40 40 40 41 41
22 20 19 19 19 18 18 16 15 16 20 26 20 20 10 10 16 12 19 24 17 20 17 12 18 21 21 23 25 23 28 28 31 33 34 35 37 38 39 40 40 41 41
20 19 19 18 18 19 18 17 17 17 14 20 25 14 4 6 17 17 17 24 15 17 13 16 20 19 20 23 23 23 27 26 29 31 33 35 36 37 38 39 39 39 39
18 18 17 17 17 17 16 17 17 18 19 16 19 20 20 20 10 11 19 15 16 12 13 17 18 20 22 22 23 25 23 25 28 30 33 34 35 36 37 37 38 37 37
17 16 15 15 15 16 15 14 14 14 17 17 17 18 18 18 21 19 10 12 13 13 14 17 19 17 19 22 23 24 24 25 27 29 31 33 34 34 35 35 36 36 35
15 13 13 13 14 14 13 14 14 13 14 14 14 14 15 15 16 14 14 14 14 13 16 17 19 20 20 21 22 22 23 24 27 29 30 31 31 32 33 33 33 34 34
11 10 11 11 12 13 13 14 14 14 14 12 12 12 17 16 18 18 17 16 15 16 16 18 19 20 19 20 22 21 23 23 24 26 28 30 30 30 30 30 31 31 31
11 11 11 11 12 12 13 14 15 13 13 12 11 13 15 16 18 19 19 18 17 14 14 14 17 19 21 22 22 22 21 22 23 24 25 27 26 26 26 27 28 30 32
10 11 11 12 12 13 13 13 14 13 13 13 13 14 16 17 19 21 21 21 20 17 15 16 18 20 21 21 21 22 21 23 24 24 24 24 24 25 27 28 29 31 31
11 11 12 12 13 13 14 13 13 13 12 13 14 15 16 18 19 21 21 22 22 21 19 19 20 20 20 21 22 21 20 22 23 24 24 24 24 26 26 26 26 25 25
11 12 13 13 13 13 13 12 12 12 13 15 16 17 17 18 19 20 22 22 22 22 21 20 20 22 22 20 20 21 22 22 23 25 24 24 23 22 22 23 26 27 28
12 13 13 13 13 13 13 12 11 14 15 16 17 17 18 18 19 20 21 21 22 22 21 22 23 20 20 21 22 24 27 26 24 24 22 20 21 22 23 25 26 29 29
13 13 13 12 12 13 12 11 13 16 18 18 18 18 19 19 20 21 21 21 22 22 24 21 19 21 22 24 26 21 18 16 16 17 19 20 21 22 23 24 25 27 27
12 12 12 12 12 11 11 12 18 20 20 19 19 20 19 20 20 21 21 21 21 20 21 22 22 25 25 20 18 16 15 17 18 19 21 22 22 22 21 22 22 22 23
12 12 11 11 11 11 10 19 21 22 21 20 20 20 20 21 23 22 21 21 21 22 23 26 24 20 18 16 16 17 17 20 23 20 19 19 20 20 21 22 22 22 22
11 11 11 11 10 11 16 20 22 22 22 20 20 20 21 21 21 22 22 22 22 26 25 22 20 18 16 16 17 20 23 20 18 20 20 21 21 20 20 20 20 21 23
11 11 10 11 10 11 17 21 21 22 21 20 20 20 20 21 23 22 24 24 29 25 21 19 17 17 17 20 25 22 21 22 21 21 21 19 18 18 18 18 20 21 23
10 10 10 11 11 11 19 20 21 22 21 20 20 20 21 22 24 22 23 29 24 20 19 19 18 21 26 22 20 22 24 24 22 19 18 17 18 18 18 19 21 22 23
10 10 11 10 11 14 19 20 22 21 20 20 21 21 24 22 21 22 26 21 19 19 18 20 26 21 19 21 21 23 20 19 16 16 17 17 18 19 19 20 21 22 22
11 11 11 12 15 14 18 21 21 21 20 20 21 20 22 21 21 26 19 19 18 17 24 24 16 16 18 18 20 19 21 18 17 15 15 19 19 21 18 18 19 21 22
Wind_Speed
2 1 1 4 4 4 6 7 6 7 8 9 10 9 9 10 10 8 8 12 13 13 13 14 13 15 15 15 15 15 15 15 15 15 14 14 14 14 14 13 15 18 21
6 7 7 9 9 8 8 9 7 9 9 9 10 9 7 9 7 7 9 9 14 15 14 14 15 15 16 16 15 16 16 15 15 15 14 14 14 14 15 17 17 17 17
11 12 9 11 8 8 9 10 8 10 11 12 12 9 7 10 5 7 8 9 11 14 15 15 16 17 17 17 17 18 17 16 15 14 15 15 15 16 17 18 19 19 20
13 13 12 11 8 9 9 10 10 8 12 13 13 10 9 7 4 9 8 9 11 12 13 17 19 20 20 20 19 19 18 18 17 18 18 18 18 19 20 20 20 20 20
13 12 12 12 10 13 12 9 12 8 14 16 14 12 12 5 4 8 10 9 11 12 10 14 18 19 20 20 18 19 21 18 19 19 20 20 21 21 21 20 21 22 23
14 13 15 14 12 14 14 11 11 11 11 15 9 12 8 3 4 7 7 6 9 12 9 12 13 14 20 19 18 21 23 19 21 22 21 22 22 21 22 23 24 24 25
12 15 15 15 13 16 13 12 5 11 15 16 8 12 6 5 3 2 6 3 7 9 9 14 13 13 14 18 17 25 21 20 24 22 24 23 22 25 27 28 27 27 27
15 15 16 15 13 14 14 14 13 4 6 14 8 3 9 7 7 15 6 3 11 14 16 19 17 16 15 15 15 24 21 24 23 24 24 26 27 27 28 27 26 29 29
16 16 16 15 14 13 14 12 10 10 9 9 10 6 5 4 12 6 7 6 15 12 16 16 16 14 15 15 18 19 19 24 25 26 28 29 29 29 28 30 32 32 32
16 16 16 15 14 13 13 10 8 8 4 8 3 7 1 3 5 12 4 13 5 17 13 14 15 15 14 14 16 20 25 25 27 30 30 30 30 31 33 33 33 33 34
15 15 15 15 14 12 10 10 9 9 6 3 3 2 2 4 1 4 18 13 18 16 14 12 15 16 14 14 14 16 22 28 29 31 31 32 33 34 34 35 35 35 35
14 14 15 14 11 10 9 7 7 7 5 4 2 2 1 1 5 6 11 20 22 13 17 18 15 13 14 13 16 24 28 30 31 32 34 35 36 36 36 37 37 37 37
13 12 12 11 9 9 8 7 6 5 4 4 3 3 1 3 4 6 11 18 17 19 8 8 12 13 15 16 16 28 30 33 34 35 35 36 37 37 37 38 39 40 41
13 10 11 10 9 8 7 5 4 4 4 4 5 3 5 7 6 7 8 14 26 12 19 14 11 13 10 15 20 28 23 31 35 37 38 38 38 39 40 41 40 40 40
11 11 10 9 7 7 6 5 5 6 5 3 6 6 7 10 9 10 11 11 11 22 33 15 7 16 14 16 19 22 23 29 35 37 39 40 40 40 40 40 40 40 44
12 11 9 7 6 6 6 6 6 6 5 7 7 8 12 10 12 12 13 13 13 18 23 26 26 23 18 19 22 25 24 32 34 36 37 39 39 41 43 45 45 44 41
11 9 7 6 6 5 6 7 7 5 10 11 11 10 14 14 14 13 13 14 15 16 24 32 26 26 27 26 23 20 20 22 23 33 37 39 41 42 41 42 42 43 43
9 8 7 6 6 6 7 8 9 10 12 13 14 14 15 13 15 14 14 16 18 18 20 28 27 29 27 27 24 23 18 20 24 29 36 39 41 41 41 40 40 41 41
9 8 7 6 6 7 9 9 9 11 12 12 12 12 15 15 16 15 16 17 16 16 17 24 28 25 27 22 20 22 23 22 22 30 35 36 36 38 39 40 40 39 40
8 6 6 6 7 9 9 9 11 11 11 9 11 15 16 16 17 17 15 17 17 21 22 22 25 23 16 24 22 25 25 23 24 23 27 29 36 37 39 39 40 40 39
6 5 6 8 8 8 7 12 11 10 10 11 14 15 14 16 21 22 21 21 22 23 23 18 17 26 25 25 25 24 26 27 20 27 24 21 24 23 26 33 35 38 37
6 6 8 8 9 8 13 15 15 11 10 14 17 15 15 17 18 24 26 29 27 27 22 23 23 25 26 24 26 23 23 29 32 16 16 27 22 27 25 24 32 36 38
5 6 7 8 11 11 13 16 18 12 13 17 18 17 16 15 21 19 25 28 24 25 24 25 25 25 27 26 23 29 25 24 27 27 27 31 25 28 25 25 35 38 39
6 5 8 9 11 11 15 17 19 12 14 17 18 17 18 20 17 26 25 18 19 17 18 20 22 25 22 26 25 24 26 27 23 25 21 30 27 29 26 25 36 38 38
5 7 8 11 11 13 16 19 19 13 14 17 16 13 16 19 25 32 25 23 22 20 22 27 24 29 32 30 28 23 22 24 27 26 25 21 17 28 28 30 26 28 30
6 9 11 9 11 13 16 19 19 13 14 16 13 13 16 24 31 30 26 22 21 25 22 18 21 21 24 24 26 18 20 23 25 23 16 16 24 18 17 15 16 26 22
Wind_Direction
184 177 65 79 74 85 81 74 60 64 41 28 27 20 14 14 6 17 25 31 34 26 26 24 14 20 14 10 5 3 5 5 3 357 353 348 344 340 334 321 305 293 285
165 134 106 84 73 69 57 62 54 54 41 22 17 12 14 9 13 55 35 41 45 38 32 33 27 20 9 0 359 354 348 343 340 339 341 344 343 336 329 321 311 305 298
146 124 109 90 69 67 71 60 52 45 31 16 9 359 6 2 46 47 48 48 49 38 39 33 21 10 3 354 348 342 338 336 337 332 326 323 322 318 313 309 301 301 297
120 115 109 90 80 70 66 60 40 37 23 10 352 345 353 0 96 44 61 59 51 37 34 29 14 7 357 350 344 341 337 330 329 324 319 315 312 309 304 300 296 296 292
111 114 105 95 83 69 56 54 45 41 20 359 344 337 345 3 121 52 58 58 45 31 31 19 13 0 353 345 338 339 330 324 322 319 313 309 306 303 299 298 300 296 289
113 104 93 87 78 69 51 49 51 44 29 355 333 328 341 2 138 54 44 38 35 25 17 10 0 353 345 339 335 332 324 321 319 312 310 307 302 303 301 298 295 291 288
99 101 96 85 76 72 64 48 52 35 24 359 2 341 351 10 282 347 15 38 17 8 10 3 349 335 326 329 325 327 321 317 314 311 307 302 300 300 296 292 288 285 283
103 97 96 87 81 80 64 53 46 38 24 23 14 348 358 340 356 325 345 21 6 4 358 341 326 319 314 315 312 322 312 315 310 308 303 302 298 294 292 287 290 290 286
98 97 91 90 84 82 74 62 55 53 32 24 43 49 353 317 326 310 324 346 351 350 328 313 308 304 300 302 304 307 302 308 305 302 301 299 296 292 291 291 288 284 281
96 93 92 89 84 78 73 68 61 59 73 37 11 31 37 260 321 317 317 316 346 322 304 300 296 296 296 292 294 304 306 303 303 303 300 298 295 295 293 288 287 286 282
90 88 87 84 81 79 76 70 60 54 57 60 46 359 338 306 308 289 301 311 312 312 301 304 302 300 293 290 292 292 300 306 304 301 298 296 297 295 292 289 287 286 283
89 83 83 84 84 81 72 66 57 53 48 48 47 14 289 337 307 303 297 308 302 308 312 293 288 291 297 296 297 305 307 306 303 300 298 297 294 293 291 290 289 287 284
93 86 87 86 81 76 67 58 48 37 31 9 347 332 186 285 272 287 299 304 303 308 288 286 269 285 289 294 302 307 304 304 304 301 298 296 295 294 292 291 290 290 288
104 103 95 87 79 69 57 46 31 9 358 336 326 286 275 293 272 275 286 306 317 302 306 298 291 271 284 292 286 298 295 294 298 299 298 295 295 294 293 290 292 294 290
106 99 89 82 71 58 41 21 4 347 334 321 313 281 273 284 264 264 271 278 290 311 310 313 299 304 295 289 283 290 291 289 293 294 294 296 296 296 294 292 287 287 287
103 95 84 72 58 43 23 8 348 337 339 328 313 297 292 283 273 273 276 269 256 272 290 306 305 301 302 295 289 294 290 291 291 292 294 292 294 292 291 289 289 285 286
99 91 81 68 49 28 10 354 343 329 333 325 316 308 304 299 292 283 275 266 265 262 274 294 296 303 302 298 295 292 287 284 282 283 288 292 294 292 291 290 288 287 285
94 88 74 55 30 9 354 350 340 328 323 321 317 319 314 309 301 287 278 272 266 267 270 283 296 303 300 299 299 300 291 282 285 286 288 288 291 294 294 292 290 289 286
89 75 60 38 14 356 348 339 320 316 316 316 320 321 312 305 297 286 277 276 276 283 283 286 291 293 293 305 304 298 295 292 287 286 287 291 291 290 290 289 287 285 284
82 68 47 26 6 350 336 319 318 319 323 326 325 315 308 301 296 290 293 300 306 298 292 288 285 291 308 307 304 305 302 297 296 289 287 288 286 287 289 289 288 286 285
76 56 30 14 359 337 326 322 319 322 326 320 313 306 298 301 312 314 311 315 306 301 296 302 317 309 310 311 306 304 299 298 297 292 290 290 288 285 283 282 281 282 282
61 37 17 359 340 333 324 324 326 324 319 315 307 297 289 301 303 310 310 308 304 310 321 315 307 305 303 302 301 301 304 307 307 297 295 297 291 289 284 281 281 282 280
42 21 358 342 334 326 320 326 325 324 320 306 298 296 304 305 307 294 291 298 301 311 308 307 302 297 296 298 303 306 301 298 298 298 302 296 295 289 287 283 283 283 282
22 354 342 339 329 323 329 328 326 322 303 294 290 295 298 297 296 307 311 313 308 306 301 300 297 295 296 306 303 303 302 298 294 294 292 292 298 290 292 284 284 284 284
359 350 336 331 330 323 332 331 326 314 298 296 295 290 295 309 310 315 325 319 317 312 304 304 303 308 308 308 310 310 307 307 305 303 302 293 294 297 295 286 279 279 283
355 339 333 328 324 328 324 326 326 316 311 310 311 303 311 316 317 325 325 324 319 308 306 318 318 310 308 303 308 307 302 302 303 309 304 309 304 308 314 279 288 293 283